This is the latest recevied weather packets stored in our database for station/object WV8BRW. If no packets are shown the sender has not sent any weather packets the latest 10 day(s).
| Time | Temp. | Humidity | Pressure | Rain* | Wind** | Luminosity | Snow |
|---|---|---|---|---|---|---|---|
| 1778087108 | 12.22° C | 99% | 1010.5 hPa | 0 mm | - | 108 W/m² | - |
| 1778086800 | 11.67° C | 99% | 1010.2 hPa | 0 mm | - | 106 W/m² | - |
| 1778086499 | 11.67° C | 99% | 1010.2 hPa | 0 mm | - | 94 W/m² | - |
| 1778086194 | 11.67° C | 99% | 1010.2 hPa | 0 mm | - | 124 W/m² | - |
| 1778085891 | 11.67° C | 99% | 1010.2 hPa | 0 mm | - | 95 W/m² | - |
| 1778085589 | 11.67° C | 99% | 1010.1 hPa | 0 mm | - | 101 W/m² | - |
| 1778085284 | 11.67° C | 99% | 1010.1 hPa | 0 mm | - | 97 W/m² | - |
| 1778084979 | 11.67° C | 99% | 1010.2 hPa | 0 mm | - | 88 W/m² | - |
| 1778084676 | 11.67° C | 99% | 1010.3 hPa | 0 mm | - | 104 W/m² | - |
| 1778084368 | 11.67° C | 99% | 1010.4 hPa | 0 mm | - | 95 W/m² | - |
| 1778084066 | 11.67° C | 99% | 1010.3 hPa | 0 mm | - | 98 W/m² | - |
| 1778083763 | 11.67° C | 99% | 1010.3 hPa | 0 mm | - | 100 W/m² | - |
| 1778083460 | 11.67° C | 99% | 1010 hPa | 0 mm | - | 95 W/m² | - |
| 1778083158 | 11.67° C | 99% | 1010 hPa | 0 mm | - | 105 W/m² | - |
| 1778082855 | 11.67° C | 99% | 1010.1 hPa | 0 mm | - | 111 W/m² | - |
| 1778081737 | 11.67° C | 99% | 1009.5 hPa | 0 mm | - | 128 W/m² | - |
| 1778081434 | 11.67° C | 99% | 1009.4 hPa | 0 mm | - | 150 W/m² | - |
| 1778081131 | 12.22° C | 99% | 1009.7 hPa | 0 mm | - | 167 W/m² | - |
| 1778080829 | 11.67° C | 99% | 1009.5 hPa | 0 mm | - | 164 W/m² | - |
| 1778080527 | 12.22° C | 99% | 1009.3 hPa | 0 mm | - | 167 W/m² | - |
| 1778080224 | 12.22° C | 99% | 1009.3 hPa | 0 mm | - | 170 W/m² | - |
| 1778079920 | 11.67° C | 99% | 1009.1 hPa | 0 mm | - | 124 W/m² | - |
| 1778079617 | 11.67° C | 99% | 1008.9 hPa | 0 mm | - | 110 W/m² | - |
| 1778079314 | 11.67° C | 99% | 1009.2 hPa | 0 mm | - | 85 W/m² | - |
| 1778079011 | 11.67° C | 99% | 1008.8 hPa | 0 mm | - | 99 W/m² | - |
* Rain latest hour (hover to see other rain measurements)
** Current wind speed in m/s (hover to see current wind gust speed)